Regional Weather Roundup
Issued by NWS

Home | Current Version | Previous Version | Text Only | Print | Product List | Glossary Off
Versions: 1 2 3 4 5 6 7 8 9 10 11 12 13 14 15 16 17 18 19 20 21 22 23 24 25 26 27 28 29 30 31 32 33 34 35 36 37 38 39 40 41 42 43 44 45 46 47 48 49 50

450
ASUS43 KDTX 061001
RWRMI
MICHIGAN HOURLY REGIONAL WEATHER ROUNDUP
NATIONAL WEATHER SERVICE DETROIT/PONTIAC MI
500 AM EST SAT FEB 06 2016

NOTE: "FAIR" INDICATES FEW OR NO CLOUDS BELOW 12,000 FEET WITH NO
SIGNIFICANT WEATHER AND/OR OBSTRUCTION TO VISIBILITY.

MIZ047>049-052>055-059>063-066>070-074>076-081>083-061100-
SOUTHEAST LOWER MICHIGAN

CITY           SKY/WX    TMP DP  RH WIND       PRES   REMARKS
ADRIAN         CLEAR     33  20  58 W6        30.29S WCI  28
ALMA           CLOUDY    24  20  83 SW6       30.24R WCI  17
ANN ARBOR      CLEAR     21  18  88 SW5       30.26S WCI  15
BAD AXE        MOCLDY    25  22  87 W3        30.22R
CARO           PTCLDY    23  19  84 SW6       30.22S WCI  16
DETROIT CITY   CLEAR     26  18  71 W10       30.27R WCI  16
DETROIT        PTCLDY    26  19  74 SW7       30.28S WCI  18
FLINT          CLEAR     25  17  72 SW6       30.25R WCI  18
GROSSE ILE     CLEAR     27  19  74 W6        30.27R WCI  20
HILLSDALE      PTCLDY    23  22  93 SW5       30.25S WCI  17
HOWELL         CLEAR     22  20  89 SW5       30.24S WCI  16

CITY           SKY/WX    TMP DP  RH WIND       PRES   REMARKS
JACKSON        PTCLDY    24  20  84 SW7       30.25F WCI  16
LAMBERTVILLE   CLEAR     26  22  87 W5        30.29S WCI  20
LANSING        PTCLDY    21  17  84 S5        30.26R WCI  15
LAPEER         FAIR      24  20  85 W3        30.24R
MASON          CLEAR     23  20  89 SW3       30.25S
MONROE         CLEAR     27  22  83 W6        30.28S WCI  20
MT. CLEMENS    CLEAR     27  21  77 W10       30.24R WCI  17
PONTIAC        CLEAR     22  17  81 W6        30.23S WCI  14
PORT HOPE        N/A     26  22  84 VRB3      30.20S
PORT HURON     PTCLDY    27  21  80 W3        30.24S
TRI CITIES     CLOUDY    25  18  74 SW9       30.24S WCI  15
MIDLAND        FAIR      24  17  75 SW5       30.22S WCI  18
TROY           CLEAR     27  21  77 SW6       30.27R WCI  20
SAGINAW HB     PTCLDY    27  21  80 S6        30.24S WCI  20
$$
MIZ043>046-050>051-056>058-064>065-071>073-077>080-061100-
SOUTHWEST LOWER MICHIGAN

CITY           SKY/WX    TMP DP  RH WIND       PRES   REMARKS
BATTLE CREEK   CLEAR     22  19  89 SW9       30.26S WCI  12
BENTON HARBOR  CLOUDY    26  23  88 S6        30.28S FOG     WCI  19
BIG RAPIDS     CLOUDY    23  19  85 CALM      30.19S
COLDWATER      CLEAR     23  22  94 SW5       30.27S FOG     WCI  17
FREMONT        CLOUDY    23  19  83 CALM      30.22S
HOLLAND        CLOUDY    24  20  84 S5        30.26R WCI  18
GRAND RAPIDS   CLOUDY    23  20  88 S9        30.25R WCI  13
IONIA          FAIR      22  20  89 SW7       30.24R WCI  14
KALAMAZOO      PTCLDY    21  18  88 SW7       30.26F WCI  12
LUDINGTON      CLOUDY    32  24  73 W8G18     30.21R WCI  24
MARSHALL       CLEAR     23  20  89 SW6       30.26S WCI  16
MOUNT PLEASANT PTCLDY    25  17  73 SW3       30.21S
MUSKEGON       CLOUDY    33  22  63 W9        30.24S WCI  25
SOUTH HAVEN    CLEAR     26  24  93 S5        30.27R FOG     WCI  20
$$
MIZ016>042-061100-
NORTHERN LOWER MICHIGAN

CITY           SKY/WX    TMP DP  RH WIND       PRES   REMARKS
ALPENA         CLOUDY    22  16  78 SW7       30.15F WCI  13
BEAVER ISLAND  LGT SNOW  28  25  87 SW20G28   30.10S WCI  15
BELLAIRE       CLOUDY    25  19  78 CALM      30.16S
CADILLAC       CLOUDY    22  18  84 SW7       30.14S WCI  14
CHARLEVOIX     CLOUDY    29  23  78 SW7       30.15S WCI  22
FRANKFORT      CLOUDY    32  18  56 W13G20    30.17S WCI  22
GAYLORD        CLOUDY    22  17  81 SW9       30.10F WCI  12
GRAYLING       CLOUDY    21  16  82 SW6       30.15F WCI  13
HARBOR SPRINGS CLOUDY    25  20  81 S10G16    30.11F WCI  15
HOUGHTON LAKE  CLOUDY    21  16  81 SW6       30.17R WCI  13
MANISTEE       CLOUDY    30  16  55 W12G20    30.19S WCI  21
OSCODA         CLOUDY    23  19  82 SW9       30.18S WCI  13
PELLSTON       CLOUDY    26  19  74 SW10      30.10  WCI  16
ROGERS CITY    CLOUDY    23  16  75 SW9       30.13F WCI  13
TRAVERSE CITY  CLOUDY    27  18  69 CALM      30.15F
$$
MIZ007>008-015-061100-
EASTERN UPPER MICHIGAN

CITY           SKY/WX    TMP DP  RH WIND       PRES   REMARKS
KINROSS        CLOUDY    27  25  93 SW12G21   30.04S WCI  16
MACKINAC ISLAN CLOUDY    28  22  75 W17G26    30.07F WCI  16
NEWBERRY       LGT SNOW  23  21  91 SW13      30.04S WCI  12
S. S. MARIE    LGT SNOW  25  22  88 W12       30.03F VSB 1   WCI  14
$$
MIZ004>006-011>014-085-061100-
CENTRAL UPPER MICHIGAN

CITY           SKY/WX    TMP DP  RH WIND       PRES   REMARKS
MANISTIQUE     FLURRIES  25  19  75 SW7       30.07F WCI  18
ESCANABA       CLOUDY    25  16  68 SW8       30.09S WCI  16
MENOMINEE      CLOUDY    25  18  74 W6        30.12F WCI  18
SAWYER-GWINN   CLOUDY    22  17  81 W8        30.02S WCI  13
$$
MIZ001>003-009>011-084-061100-
WESTERN UPPER MICHIGAN

CITY           SKY/WX    TMP DP  RH WIND       PRES   REMARKS
IRON MOUNTAIN  CLOUDY    24  16  71 W8        30.06S WCI  15
HOUGHTON       CLOUDY    24  17  74 W16       29.99S WCI  11
COPPER HARBOR    N/A     30  22  72 N16G23    30.00S WCI  19
IRONWOOD       CLOUDY    21  19  93 SW10      30.03S WCI  10
$$

ABBREVIATIONS USED IN REMARKS
   TC - TEMPERATURE IN CELSIUS
  WCI - WIND CHILL INDEX
   HX - HEAT INDEX
  VSB - VISIBILITY





USA.gov is the U.S. government's official web portal to all federal, state and local government web resources and services.